Date String (YYYY-MM-DD hh:mm:ss) UTC,Instrument flags,Ambient pressure (hPa),Sample flow (lpm),Bypass flow (lpm),Sample temperature (°C),Ambient temperature (°C),ASC tube jacket temperature (°C),LED temperature (°C),Box temperature (°C),Sample RH (%),Span deviation,Mass concentration (μg/m³),Mass concentration (μg/m³),Mass concentration (μg/m³)
DateTimeUTC,F1_M11,P_M11,Q1_M11,Q2_M11,T1_M11,T2_M11,T3_M11,T4_M11,T5_M11,U1_M11,ZSPAN_M11,X2_M11,X0_M11,X1_M11
2022-06-12 03:00:00,,0821.2,5.01,0.00,28.9,27.7,00.0,37.6,30.9,16.3,0000.0,0004.29,0010.48,0003.22
2022-06-12 03:01:00,,0821.2,5.01,0.00,28.9,27.2,00.0,37.5,30.7,16.6,0000.0,0004.30,0010.19,0003.21
2022-06-12 03:02:00,,0821.3,5.00,0.00,28.8,27.1,00.0,37.5,30.7,16.7,0000.0,0004.30,0010.21,0003.22
2022-06-12 03:03:00,,0821.3,4.99,0.00,28.8,27.2,00.0,37.6,30.6,17.0,0000.0,0004.31,0010.35,0003.24
2022-06-12 03:04:00,,0821.4,4.99,0.00,28.8,27.3,00.0,37.6,30.6,17.1,0000.0,0004.31,0010.75,0003.24
2022-06-12 03:05:00,,0821.4,4.99,0.00,28.8,27.4,00.0,37.6,30.7,16.9,0000.0,0004.36,0010.63,0003.25
2022-06-12 03:06:00,,0821.4,5.00,0.00,28.8,27.6,00.0,37.6,30.8,16.8,0000.0,0004.37,0010.47,0003.26
2022-06-12 03:07:00,,0821.4,5.00,0.00,28.8,27.7,00.0,37.6,30.8,16.8,0000.0,0004.40,0010.84,0003.27
2022-06-12 03:08:00,,0821.4,5.01,0.00,28.9,27.9,00.0,37.6,30.9,16.8,0000.0,0004.42,0011.44,0003.27
2022-06-12 03:09:00,,0821.4,5.00,0.00,28.9,28.0,00.0,37.7,31.0,16.7,0000.0,0004.44,0011.41,0003.27
2022-06-12 03:10:00,,0821.4,4.99,0.00,29.0,27.8,00.0,37.7,30.9,16.7,0000.0,0004.43,0011.69,0003.27
2022-06-12 03:11:00,,0821.4,5.00,0.00,28.9,27.0,00.0,37.6,30.7,16.9,0000.0,0004.48,0011.78,0003.29
2022-06-12 03:12:00,,0821.4,4.99,0.00,28.8,26.5,00.0,37.5,30.5,17.2,0000.0,0004.54,0012.50,0003.30
2022-06-12 03:13:00,,0821.4,5.00,0.00,28.7,26.5,00.0,37.5,30.5,17.4,0000.0,0004.53,0012.86,0003.31
2022-06-12 03:14:00,,0821.4,5.01,0.00,28.7,26.6,00.0,37.5,30.4,17.5,0000.0,0004.55,0013.37,0003.32
2022-06-12 03:15:00,,0821.4,4.99,0.00,28.6,26.8,00.0,37.5,30.5,17.6,0000.0,0004.59,0013.61,0003.33
2022-06-12 03:16:00,,0821.5,4.99,0.00,28.7,27.0,00.0,37.5,30.5,17.5,0000.0,0004.59,0013.48,0003.33
2022-06-12 03:17:00,,0821.5,5.00,0.00,28.7,27.2,00.0,37.6,30.6,17.6,0000.0,0004.60,0013.79,0003.33
2022-06-12 03:18:00,,0821.5,5.00,0.00,28.7,27.4,00.0,37.6,30.7,17.6,0000.0,0004.61,0013.46,0003.34
2022-06-12 03:19:00,,0821.5,5.01,0.00,28.7,27.6,00.0,37.6,30.7,17.5,0000.0,0004.64,0012.50,0003.35
2022-06-12 03:20:00,,0821.6,5.00,0.00,28.8,27.7,00.0,37.6,30.8,17.5,0000.0,0004.66,0012.56,0003.38
2022-06-12 03:21:00,,0821.7,5.00,0.00,28.8,27.9,00.0,37.6,30.9,17.5,0000.0,0004.75,0012.95,0003.39
2022-06-12 03:22:00,,0821.7,4.99,0.00,28.9,28.0,00.0,37.6,30.9,17.9,0000.0,0004.74,0013.75,0003.40
2022-06-12 03:23:00,,0821.7,4.99,0.00,28.9,28.1,00.0,37.7,31.0,18.2,0000.0,0004.70,0013.61,0003.40
2022-06-12 03:24:00,,0821.7,5.00,0.00,28.9,27.7,00.0,37.6,30.9,18.2,0000.0,0004.71,0013.20,0003.43
2022-06-12 03:25:00,,0821.7,5.00,0.00,28.9,27.0,00.0,37.6,30.7,18.3,0000.0,0004.72,0012.81,0003.43
2022-06-12 03:26:00,,0821.7,5.01,0.00,28.8,26.7,00.0,37.5,30.6,18.1,0000.0,0004.77,0012.45,0003.44
2022-06-12 03:27:00,,0821.7,5.01,0.00,28.7,26.7,00.0,37.5,30.5,18.2,0000.0,0004.78,0012.69,0003.44
2022-06-12 03:28:00,,0821.7,5.00,0.00,28.7,26.7,00.0,37.5,30.5,18.3,0000.0,0004.82,0013.05,0003.46
2022-06-12 03:29:00,,0821.7,5.00,0.00,28.7,26.9,00.0,37.5,30.5,18.3,0000.0,0004.88,0013.64,0003.47
2022-06-12 03:30:00,,0821.8,5.00,0.00,28.7,27.1,00.0,37.5,30.5,18.2,0000.0,0004.91,0013.88,0003.48
2022-06-12 03:31:00,,0821.8,5.00,0.00,28.7,27.3,00.0,37.5,30.6,18.0,0000.0,0004.96,0014.05,0003.48
2022-06-12 03:32:00,,0821.8,5.00,0.00,28.7,27.5,00.0,37.6,30.7,17.8,0000.0,0004.96,0013.44,0003.49
2022-06-12 03:33:00,,0821.8,5.00,0.00,28.8,27.6,00.0,37.6,30.8,17.5,0000.0,0005.00,0013.72,0003.49
2022-06-12 03:34:00,,0821.8,4.99,0.00,28.8,27.8,00.0,37.6,30.8,17.8,0000.0,0005.07,0014.01,0003.51
2022-06-12 03:35:00,,0821.8,5.01,0.00,28.8,27.9,00.0,37.6,30.9,17.9,0000.0,0005.09,0014.06,0003.51
2022-06-12 03:36:00,,0821.8,5.00,0.00,28.9,28.0,00.0,37.6,30.9,17.8,0000.0,0005.10,0014.08,0003.51
2022-06-12 03:37:00,,0822.2,5.01,0.00,28.9,28.2,00.0,37.7,31.0,17.6,0000.0,0005.08,0013.87,0003.52
2022-06-12 03:38:00,,0822.1,5.00,0.00,29.0,28.1,00.0,37.7,31.0,17.5,0000.0,0005.11,0013.64,0003.53
2022-06-12 03:39:00,,0822.1,4.99,0.00,28.9,27.3,00.0,37.6,30.8,17.4,0000.0,0005.12,0013.35,0003.53
2022-06-12 03:40:00,,0822.1,5.01,0.00,28.8,26.7,00.0,37.6,30.6,17.3,0000.0,0005.12,0013.75,0003.52
2022-06-12 03:41:00,,0821.9,4.99,0.00,28.8,26.6,00.0,37.6,30.6,17.5,0000.0,0005.07,0013.49,0003.51
2022-06-12 03:42:00,,0822.1,4.99,0.00,28.7,26.7,00.0,37.6,30.5,17.6,0000.0,0005.06,0013.82,0003.51
2022-06-12 03:43:00,,0822.1,5.00,0.00,28.7,26.9,00.0,37.6,30.5,17.8,0000.0,0005.08,0014.19,0003.52
2022-06-12 03:44:00,,0822.1,5.00,0.00,28.7,27.0,00.0,37.6,30.6,18.0,0000.0,0005.10,0014.43,0003.54
2022-06-12 03:45:00,,0822.1,5.01,0.00,28.7,27.2,00.0,37.6,30.6,18.3,0000.0,0005.05,0014.21,0003.54
2022-06-12 03:46:00,,0822.1,4.99,0.00,28.7,27.4,00.0,37.6,30.7,18.4,0000.0,0005.08,0014.93,0003.55
2022-06-12 03:47:00,,0822.2,5.00,0.00,28.8,27.6,00.0,37.6,30.8,18.5,0000.0,0005.11,0015.53,0003.57
2022-06-12 03:48:00,,0822.2,5.00,0.00,28.8,27.7,00.0,37.6,30.8,18.3,0000.0,0005.11,0015.78,0003.60
2022-06-12 03:49:00,,0822.2,4.99,0.00,28.9,27.9,00.0,37.6,30.9,18.4,0000.0,0005.13,0016.40,0003.63
2022-06-12 03:50:00,,0822.2,5.01,0.00,28.9,28.0,00.0,37.7,31.0,18.6,0000.0,0005.18,0016.88,0003.66
2022-06-12 03:51:00,,0822.2,5.01,0.00,29.0,28.1,00.0,37.7,31.0,18.4,0000.0,0005.20,0017.71,0003.69
2022-06-12 03:52:00,,0822.3,4.98,0.00,29.0,28.3,00.0,37.7,31.1,18.5,0000.0,0005.27,0019.11,0003.72
2022-06-12 03:53:00,,0822.3,5.00,0.00,29.0,28.1,00.0,37.7,31.0,18.3,0000.0,0005.26,0019.37,0003.75
2022-06-12 03:54:00,,0822.3,5.00,0.00,29.0,27.3,00.0,37.7,30.8,18.4,0000.0,0005.23,0019.11,0003.76
2022-06-12 03:55:00,,0822.3,5.02,0.00,28.9,26.7,00.0,37.6,30.7,18.3,0000.0,0005.24,0018.07,0003.78
2022-06-12 03:56:00,,0822.3,4.98,0.00,28.8,26.7,00.0,37.6,30.6,18.2,0000.0,0005.27,0017.52,0003.78
2022-06-12 03:57:00,,0822.3,5.01,0.00,28.8,26.7,00.0,37.6,30.5,18.2,0000.0,0005.23,0017.13,0003.80
2022-06-12 03:58:00,,0822.3,5.00,0.00,28.7,26.9,00.0,37.6,30.5,17.8,0000.0,0005.23,0016.57,0003.80
2022-06-12 03:59:00,,0822.4,5.01,0.00,28.7,27.1,00.0,37.6,30.6,17.2,0000.0,0005.21,0016.20,0003.78
